Time,TemperatureF,DewpointF,PressureIn,WindDirection,WindDirectionDegrees,WindSpeedMPH,WindSpeedGustMPH,Humidity,HourlyPrecipIn,Conditions,Clouds,dailyrainin,SoftwareType,DateUTC
2013-04-13 00:03:00,49.0,-99.9,29.67,North,8,19.0,22.0,-999,-99.99,,,-99.99,,2013-04-13 04:03:00,
2013-04-13 00:12:00,49.0,-99.9,29.68,North,7,18.0,21.0,-999,-99.99,,,-99.99,,2013-04-13 04:12:00,
2013-04-13 00:23:00,49.0,-99.9,29.69,North,6,18.0,21.0,-999,-99.99,,,-99.99,,2013-04-13 04:23:00,
2013-04-13 00:33:00,49.0,-99.9,29.69,North,8,19.0,22.0,-999,-99.99,,,-99.99,,2013-04-13 04:33:00,
2013-04-13 00:42:00,49.0,-99.9,29.70,North,8,17.0,21.0,-999,-99.99,,,-99.99,,2013-04-13 04:42:00,
2013-04-13 00:53:00,48.0,-99.9,29.68,ENE,60,13.0,15.0,-999,-99.99,,,-99.99,,2013-04-13 04:53:00,
2013-04-13 01:03:00,48.0,-99.9,29.70,NNE,30,12.0,14.0,-999,-99.99,,,-99.99,,2013-04-13 05:03:00,
2013-04-13 01:12:00,48.0,-99.9,29.71,NNE,16,11.0,13.0,-999,-99.99,,,-99.99,,2013-04-13 05:12:00,
2013-04-13 01:23:00,48.0,-99.9,29.72,North,349,17.0,20.0,-999,-99.99,,,-99.99,,2013-04-13 05:23:00,
2013-04-13 01:32:00,49.0,-99.9,29.74,North,4,15.0,19.0,-999,-99.99,,,-99.99,,2013-04-13 05:32:00,
2013-04-13 01:43:00,49.0,-99.9,29.74,North,353,19.0,24.0,-999,-99.99,,,-99.99,,2013-04-13 05:43:00,
2013-04-13 01:53:00,48.0,-99.9,29.76,NNW,347,24.0,26.0,-999,-99.99,,,-99.99,,2013-04-13 05:53:00,
2013-04-13 02:02:00,48.0,-99.9,29.77,NNW,347,19.0,22.0,-999,-99.99,,,-99.99,,2013-04-13 06:02:00,
2013-04-13 02:12:00,48.0,-99.9,29.77,NNW,346,20.0,26.0,-999,-99.99,,,-99.99,,2013-04-13 06:12:00,
2013-04-13 02:24:00,48.0,-99.9,29.78,NNW,347,25.0,30.0,-999,-99.99,,,-99.99,,2013-04-13 06:24:00,
2013-04-13 02:37:00,48.0,-99.9,29.78,NNW,342,25.0,29.0,-999,-99.99,,,-99.99,,2013-04-13 06:37:00,
2013-04-13 02:49:00,48.0,-99.9,29.78,NNW,346,24.0,30.0,-999,-99.99,,,-99.99,,2013-04-13 06:49:00,
2013-04-13 02:57:00,48.0,-99.9,29.79,North,353,22.0,28.0,-999,-99.99,,,-99.99,,2013-04-13 06:57:00,
2013-04-13 03:08:00,48.0,-99.9,29.79,North,353,21.0,25.0,-999,-99.99,,,-99.99,,2013-04-13 07:08:00,
2013-04-13 03:16:00,48.0,-99.9,29.79,North,358,21.0,24.0,-999,-99.99,,,-99.99,,2013-04-13 07:16:00,
2013-04-13 03:25:00,48.0,-99.9,29.80,North,350,21.0,24.0,-999,-99.99,,,-99.99,,2013-04-13 07:25:00,
2013-04-13 03:37:00,48.0,-99.9,29.81,North,350,18.0,20.0,-999,-99.99,,,-99.99,,2013-04-13 07:37:00,
2013-04-13 03:46:00,48.0,-99.9,29.81,North,349,18.0,21.0,-999,-99.99,,,-99.99,,2013-04-13 07:46:00,
2013-04-13 03:58:00,48.0,-99.9,29.81,North,359,18.0,22.0,-999,-99.99,,,-99.99,,2013-04-13 07:58:00,
2013-04-13 04:07:00,48.0,-99.9,29.82,North,358,18.0,20.0,-999,-99.99,,,-99.99,,2013-04-13 08:07:00,
2013-04-13 04:17:00,48.0,-99.9,29.82,North,360,19.0,21.0,-999,-99.99,,,-99.99,,2013-04-13 08:17:00,
2013-04-13 04:27:00,49.0,-99.9,29.83,North,1,17.0,20.0,-999,-99.99,,,-99.99,,2013-04-13 08:27:00,
2013-04-13 04:35:00,49.0,-99.9,29.83,North,358,17.0,21.0,-999,-99.99,,,-99.99,,2013-04-13 08:35:00,
2013-04-13 04:47:00,49.0,-99.9,29.83,North,349,17.0,20.0,-999,-99.99,,,-99.99,,2013-04-13 08:47:00,
2013-04-13 04:55:00,49.0,-99.9,29.83,North,353,18.0,21.0,-999,-99.99,,,-99.99,,2013-04-13 08:55:00,
2013-04-13 05:06:00,49.0,-99.9,29.83,North,349,18.0,21.0,-999,-99.99,,,-99.99,,2013-04-13 09:06:00,
2013-04-13 05:15:00,49.0,-99.9,29.83,North,349,19.0,21.0,-999,-99.99,,,-99.99,,2013-04-13 09:15:00,
2013-04-13 05:25:00,49.0,-99.9,29.84,NNW,344,19.0,21.0,-999,-99.99,,,-99.99,,2013-04-13 09:25:00,
2013-04-13 05:38:00,49.0,-99.9,29.84,NNW,343,16.0,19.0,-999,-99.99,,,-99.99,,2013-04-13 09:38:00,
2013-04-13 05:53:00,49.0,-99.9,29.84,NNW,337,14.0,17.0,-999,-99.99,,,-99.99,,2013-04-13 09:53:00,
2013-04-13 06:05:00,50.0,-99.9,29.85,NNW,345,14.0,17.0,-999,-99.99,,,-99.99,,2013-04-13 10:05:00,
2013-04-13 06:16:00,50.0,-99.9,29.85,NNW,347,15.0,17.0,-999,-99.99,,,-99.99,,2013-04-13 10:16:00,
2013-04-13 06:25:00,51.0,-99.9,29.85,NNW,348,15.0,18.0,-999,-99.99,,,-99.99,,2013-04-13 10:25:00,
2013-04-13 06:38:00,51.0,-99.9,29.85,North,353,14.0,17.0,-999,-99.99,,,-99.99,,2013-04-13 10:38:00,
2013-04-13 06:51:00,51.0,-99.9,29.85,NNW,341,14.0,17.0,-999,-99.99,,,-99.99,,2013-04-13 10:51:00,
2013-04-13 07:08:00,51.0,-99.9,29.87,North,350,12.0,15.0,-999,-99.99,,,-99.99,,2013-04-13 11:08:00,
2013-04-13 07:14:00,51.0,-99.9,29.87,North,351,13.0,15.0,-999,-99.99,,,-99.99,,2013-04-13 11:14:00,
2013-04-13 07:25:00,51.0,-99.9,29.88,North,2,13.0,16.0,-999,-99.99,,,-99.99,,2013-04-13 11:25:00,
2013-04-13 07:35:00,51.0,-99.9,29.88,North,9,12.0,15.0,-999,-99.99,,,-99.99,,2013-04-13 11:35:00,
2013-04-13 07:47:00,51.0,-99.9,29.88,North,4,12.0,14.0,-999,-99.99,,,-99.99,,2013-04-13 11:47:00,
2013-04-13 07:54:00,51.0,-99.9,29.89,North,3,11.0,12.0,-999,-99.99,,,-99.99,,2013-04-13 11:54:00,
2013-04-13 08:09:00,51.0,-99.9,29.90,North,2,8.0,9.0,-999,-99.99,,,-99.99,,2013-04-13 12:09:00,
2013-04-13 08:17:00,50.0,-99.9,29.91,North,7,10.0,11.0,-999,-99.99,,,-99.99,,2013-04-13 12:17:00,
2013-04-13 08:25:00,50.0,-99.9,29.91,North,10,11.0,12.0,-999,-99.99,,,-99.99,,2013-04-13 12:25:00,
2013-04-13 08:37:00,50.0,-99.9,29.91,NNE,18,10.0,11.0,-999,-99.99,,,-99.99,,2013-04-13 12:37:00,
2013-04-13 08:49:00,50.0,-99.9,29.92,NNE,18,10.0,12.0,-999,-99.99,,,-99.99,,2013-04-13 12:49:00,
2013-04-13 08:57:00,50.0,-99.9,29.92,NNE,20,9.0,11.0,-999,-99.99,,,-99.99,,2013-04-13 12:57:00,
2013-04-13 09:08:00,50.0,-99.9,29.93,NNE,20,9.0,10.0,-999,-99.99,,,-99.99,,2013-04-13 13:08:00,
2013-04-13 09:17:00,50.0,-99.9,29.93,NNE,15,7.0,8.0,-999,-99.99,,,-99.99,,2013-04-13 13:17:00,
2013-04-13 09:31:00,50.0,-99.9,29.93,North,11,6.0,9.0,-999,-99.99,,,-99.99,,2013-04-13 13:31:00,
2013-04-13 09:37:00,50.0,-99.9,29.93,North,9,7.0,8.0,-999,-99.99,,,-99.99,,2013-04-13 13:37:00,
2013-04-13 09:49:00,50.0,-99.9,29.93,NNE,22,5.0,6.0,-999,-99.99,,,-99.99,,2013-04-13 13:49:00,
2013-04-13 09:58:00,51.0,-99.9,29.93,NNE,29,2.0,3.0,-999,-99.99,,,-99.99,,2013-04-13 13:58:00,
2013-04-13 10:05:00,51.0,-99.9,29.93,NE,44,3.0,3.0,-999,-99.99,,,-99.99,,2013-04-13 14:05:00,
2013-04-13 10:24:00,51.0,-99.9,29.93,ENE,62,3.0,4.0,-999,-99.99,,,-99.99,,2013-04-13 14:24:00,
2013-04-13 10:39:00,51.0,-99.9,29.93,East,80,4.0,5.0,-999,-99.99,,,-99.99,,2013-04-13 14:39:00,
2013-04-13 10:48:00,51.0,-99.9,29.93,NE,41,5.0,5.0,-999,-99.99,,,-99.99,,2013-04-13 14:48:00,
2013-04-13 11:00:00,51.0,-99.9,29.93,NNE,18,4.0,5.0,-999,-99.99,,,-99.99,,2013-04-13 15:00:00,
2013-04-13 11:15:00,51.0,-99.9,29.93,ENE,72,3.0,4.0,-999,-99.99,,,-99.99,,2013-04-13 15:15:00,
2013-04-13 11:30:00,52.0,-99.9,29.93,ENE,58,4.0,5.0,-999,-99.99,,,-99.99,,2013-04-13 15:30:00,
2013-04-13 11:38:00,52.0,-99.9,29.93,NE,55,7.0,9.0,-999,-99.99,,,-99.99,,2013-04-13 15:38:00,
2013-04-13 11:45:00,52.0,-99.9,29.93,NE,44,5.0,6.0,-999,-99.99,,,-99.99,,2013-04-13 15:45:00,
2013-04-13 11:59:00,52.0,-99.9,29.93,NE,55,5.0,6.0,-999,-99.99,,,-99.99,,2013-04-13 15:59:00,
2013-04-13 12:08:00,52.0,-99.9,29.93,NE,45,7.0,8.0,-999,-99.99,,,-99.99,,2013-04-13 16:08:00,
2013-04-13 12:17:00,52.0,-99.9,29.93,NE,52,6.0,6.0,-999,-99.99,,,-99.99,,2013-04-13 16:17:00,
2013-04-13 12:25:00,52.0,-99.9,29.93,NE,41,6.0,7.0,-999,-99.99,,,-99.99,,2013-04-13 16:25:00,
2013-04-13 12:37:00,51.0,-99.9,29.93,NE,43,7.0,8.0,-999,-99.99,,,-99.99,,2013-04-13 16:37:00,
2013-04-13 12:48:00,51.0,-99.9,29.93,NE,54,7.0,8.0,-999,-99.99,,,-99.99,,2013-04-13 16:48:00,
2013-04-13 13:09:00,51.0,-99.9,29.93,ENE,71,6.0,8.0,-999,-99.99,,,-99.99,,2013-04-13 17:09:00,
2013-04-13 13:23:00,52.0,-99.9,29.93,ENE,62,6.0,7.0,-999,-99.99,,,-99.99,,2013-04-13 17:23:00,
2013-04-13 13:39:00,51.0,-99.9,29.93,ENE,59,7.0,9.0,-999,-99.99,,,-99.99,,2013-04-13 17:39:00,
2013-04-13 13:45:00,52.0,-99.9,29.93,ENE,69,7.0,9.0,-999,-99.99,,,-99.99,,2013-04-13 17:45:00,
2013-04-13 14:04:00,52.0,-99.9,29.92,East,80,8.0,9.0,-999,-99.99,,,-99.99,,2013-04-13 18:04:00,
2013-04-13 14:25:00,52.0,-99.9,29.93,ENE,68,6.0,8.0,-999,-99.99,,,-99.99,,2013-04-13 18:25:00,
2013-04-13 14:33:00,52.0,-99.9,29.93,ENE,71,5.0,6.0,-999,-99.99,,,-99.99,,2013-04-13 18:33:00,
2013-04-13 14:42:00,53.0,-99.9,29.93,East,81,7.0,10.0,-999,-99.99,,,-99.99,,2013-04-13 18:42:00,
2013-04-13 14:53:00,53.0,-99.9,29.93,East,86,6.0,9.0,-999,-99.99,,,-99.99,,2013-04-13 18:53:00,
2013-04-13 15:03:00,53.0,-99.9,29.93,East,95,8.0,10.0,-999,-99.99,,,-99.99,,2013-04-13 19:03:00,
2013-04-13 15:12:00,53.0,-99.9,29.93,East,96,9.0,11.0,-999,-99.99,,,-99.99,,2013-04-13 19:12:00,
2013-04-13 15:23:00,54.0,-99.9,29.92,East,96,8.0,10.0,-999,-99.99,,,-99.99,,2013-04-13 19:23:00,
2013-04-13 15:33:00,54.0,-99.9,29.92,East,93,8.0,9.0,-999,-99.99,,,-99.99,,2013-04-13 19:33:00,
2013-04-13 15:42:00,54.0,-99.9,29.92,East,87,10.0,12.0,-999,-99.99,,,-99.99,,2013-04-13 19:42:00,
2013-04-13 15:53:00,55.0,-99.9,29.91,East,98,8.0,10.0,-999,-99.99,,,-99.99,,2013-04-13 19:53:00,
2013-04-13 16:02:00,55.0,-99.9,29.91,ESE,109,10.0,12.0,-999,-99.99,,,-99.99,,2013-04-13 20:02:00,
2013-04-13 16:13:00,55.0,-99.9,29.91,ESE,106,10.0,13.0,-999,-99.99,,,-99.99,,2013-04-13 20:13:00,
2013-04-13 16:22:00,55.0,-99.9,29.91,SE,139,10.0,14.0,-999,-99.99,,,-99.99,,2013-04-13 20:22:00,
2013-04-13 16:32:00,55.0,-99.9,29.91,SSE,156,8.0,11.0,-999,-99.99,,,-99.99,,2013-04-13 20:32:00,
2013-04-13 16:42:00,55.0,-99.9,29.91,SE,139,6.0,9.0,-999,-99.99,,,-99.99,,2013-04-13 20:42:00,
2013-04-13 16:53:00,55.0,-99.9,29.90,SE,126,10.0,12.0,-999,-99.99,,,-99.99,,2013-04-13 20:53:00,
2013-04-13 17:02:00,55.0,-99.9,29.90,SE,128,10.0,12.0,-999,-99.99,,,-99.99,,2013-04-13 21:02:00,
2013-04-13 17:12:00,56.0,-99.9,29.90,SSE,147,6.0,9.0,-999,-99.99,,,-99.99,,2013-04-13 21:12:00,
2013-04-13 17:22:00,56.0,-99.9,29.90,SSE,155,10.0,13.0,-999,-99.99,,,-99.99,,2013-04-13 21:22:00,
2013-04-13 17:33:00,56.0,-99.9,29.91,SSE,161,9.0,13.0,-999,-99.99,,,-99.99,,2013-04-13 21:33:00,
2013-04-13 17:43:00,56.0,-99.9,29.91,SSE,168,9.0,11.0,-999,-99.99,,,-99.99,,2013-04-13 21:43:00,
2013-04-13 17:53:00,56.0,-99.9,29.91,SE,141,11.0,14.0,-999,-99.99,,,-99.99,,2013-04-13 21:53:00,
2013-04-13 18:03:00,56.0,-99.9,29.91,SSE,152,11.0,13.0,-999,-99.99,,,-99.99,,2013-04-13 22:03:00,
2013-04-13 18:13:00,56.0,-99.9,29.91,SSE,154,11.0,15.0,-999,-99.99,,,-99.99,,2013-04-13 22:13:00,
2013-04-13 18:23:00,56.0,-99.9,29.92,South,175,8.0,12.0,-999,-99.99,,,-99.99,,2013-04-13 22:23:00,
2013-04-13 18:33:00,55.0,-99.9,29.92,SSE,162,9.0,11.0,-999,-99.99,,,-99.99,,2013-04-13 22:33:00,
2013-04-13 18:42:00,55.0,-99.9,29.92,SSE,151,9.0,13.0,-999,-99.99,,,-99.99,,2013-04-13 22:42:00,
2013-04-13 18:53:00,55.0,-99.9,29.92,South,169,10.0,13.0,-999,-99.99,,,-99.99,,2013-04-13 22:53:00,
2013-04-13 19:02:00,54.0,-99.9,29.92,SSE,167,14.0,18.0,-999,-99.99,,,-99.99,,2013-04-13 23:02:00,
2013-04-13 19:12:00,53.0,-99.9,29.91,South,172,11.0,16.0,-999,-99.99,,,-99.99,,2013-04-13 23:12:00,
2013-04-13 19:22:00,53.0,-99.9,29.91,SSE,166,11.0,14.0,-999,-99.99,,,-99.99,,2013-04-13 23:22:00,
2013-04-13 19:33:00,53.0,-99.9,29.91,SSE,161,11.0,16.0,-999,-99.99,,,-99.99,,2013-04-13 23:33:00,
2013-04-13 19:43:00,53.0,-99.9,29.91,SSE,163,11.0,15.0,-999,-99.99,,,-99.99,,2013-04-13 23:43:00,
2013-04-13 19:53:00,53.0,-99.9,29.91,SSE,167,9.0,13.0,-999,-99.99,,,-99.99,,2013-04-13 23:53:00,
2013-04-13 20:03:00,53.0,-99.9,29.91,SSE,165,6.0,11.0,-999,-99.99,,,-99.99,,2013-04-14 00:03:00,
2013-04-13 20:12:00,53.0,-99.9,29.92,South,171,8.0,11.0,-999,-99.99,,,-99.99,,2013-04-14 00:12:00,
2013-04-13 20:22:00,53.0,-99.9,29.92,SSE,168,7.0,10.0,-999,-99.99,,,-99.99,,2013-04-14 00:22:00,
2013-04-13 20:32:00,52.0,-99.9,29.92,South,176,8.0,11.0,-999,-99.99,,,-99.99,,2013-04-14 00:32:00,
2013-04-13 20:42:00,52.0,-99.9,29.92,South,176,8.0,11.0,-999,-99.99,,,-99.99,,2013-04-14 00:42:00,
2013-04-13 20:52:00,52.0,-99.9,29.93,South,178,8.0,11.0,-999,-99.99,,,-99.99,,2013-04-14 00:52:00,
2013-04-13 21:02:00,52.0,-99.9,29.93,South,175,7.0,10.0,-999,-99.99,,,-99.99,,2013-04-14 01:02:00,
2013-04-13 21:13:00,52.0,-99.9,29.93,South,181,8.0,10.0,-999,-99.99,,,-99.99,,2013-04-14 01:13:00,
2013-04-13 21:23:00,52.0,-99.9,29.94,South,178,8.0,13.0,-999,-99.99,,,-99.99,,2013-04-14 01:23:00,
2013-04-13 21:33:00,52.0,-99.9,29.94,South,182,8.0,13.0,-999,-99.99,,,-99.99,,2013-04-14 01:33:00,
2013-04-13 21:43:00,52.0,-99.9,29.94,South,187,6.0,8.0,-999,-99.99,,,-99.99,,2013-04-14 01:43:00,
2013-04-13 21:53:00,52.0,-99.9,29.94,South,185,8.0,12.0,-999,-99.99,,,-99.99,,2013-04-14 01:53:00,
2013-04-13 22:03:00,52.0,-99.9,29.95,South,187,6.0,10.0,-999,-99.99,,,-99.99,,2013-04-14 02:03:00,
2013-04-13 22:13:00,51.0,-99.9,29.95,South,191,7.0,12.0,-999,-99.99,,,-99.99,,2013-04-14 02:13:00,
2013-04-13 22:22:00,51.0,-99.9,29.95,SSW,193,6.0,9.0,-999,-99.99,,,-99.99,,2013-04-14 02:22:00,
2013-04-13 22:33:00,51.0,-99.9,29.95,SSW,192,4.0,7.0,-999,-99.99,,,-99.99,,2013-04-14 02:33:00,
2013-04-13 22:43:00,51.0,-99.9,29.95,South,191,6.0,9.0,-999,-99.99,,,-99.99,,2013-04-14 02:43:00,
2013-04-13 22:53:00,51.0,-99.9,29.95,South,186,6.0,9.0,-999,-99.99,,,-99.99,,2013-04-14 02:53:00,
2013-04-13 23:03:00,51.0,-99.9,29.95,South,188,6.0,8.0,-999,-99.99,,,-99.99,,2013-04-14 03:03:00,
2013-04-13 23:13:00,51.0,-99.9,29.95,South,183,5.0,8.0,-999,-99.99,,,-99.99,,2013-04-14 03:13:00,
2013-04-13 23:22:00,52.0,-99.9,29.95,SSW,192,7.0,12.0,-999,-99.99,,,-99.99,,2013-04-14 03:22:00,
2013-04-13 23:33:00,52.0,-99.9,29.95,South,186,7.0,10.0,-999,-99.99,,,-99.99,,2013-04-14 03:33:00,
2013-04-13 23:43:00,52.0,-99.9,29.95,South,184,6.0,9.0,-999,-99.99,,,-99.99,,2013-04-14 03:43:00,
2013-04-13 23:53:00,52.0,-99.9,29.95,SSW,192,5.0,7.0,-999,-99.99,,,-99.99,,2013-04-14 03:53:00,